Time,TemperatureF,DewpointF,PressureIn,WindDirection,WindDirectionDegrees,WindSpeedMPH,WindSpeedGustMPH,Humidity,HourlyPrecipIn,Conditions,Clouds,dailyrainin,SoftwareType,DateUTC
2013-01-26 00:00:00,47.2,41.0,30.24,NNW,329,0.0,4.0,79,0.00,,SKC,0.00,VWS V14.01,2013-01-26 06:00:00,
2013-01-26 00:02:00,47.2,41.0,30.24,NW,311,1.0,3.0,79,0.00,,SKC,0.00,VWS V14.01,2013-01-26 06:02:00,
2013-01-26 00:08:00,47.2,41.0,30.25,North,355,0.0,3.0,79,0.00,,SKC,0.00,VWS V14.01,2013-01-26 06:08:00,
2013-01-26 00:14:00,47.2,41.0,30.25,West,264,1.0,5.0,79,0.00,,SKC,0.00,VWS V14.01,2013-01-26 06:14:00,
2013-01-26 00:21:00,47.1,40.9,30.24,SW,217,0.0,5.0,79,0.00,,SKC,0.00,VWS V14.01,2013-01-26 06:21:00,
2013-01-26 00:27:00,47.1,41.3,30.24,WSW,241,0.0,5.0,80,0.00,,SKC,0.00,VWS V14.01,2013-01-26 06:27:00,
2013-01-26 00:30:00,47.1,41.3,30.24,WSW,242,0.0,5.0,80,0.00,,SKC,0.00,VWS V14.01,2013-01-26 06:30:00,
2013-01-26 00:33:00,47.1,41.3,30.24,North,355,1.0,3.0,80,0.00,,SKC,0.00,VWS V14.01,2013-01-26 06:33:00,
2013-01-26 00:39:00,47.0,41.2,30.23,East,87,3.0,3.0,80,0.00,,SKC,0.00,VWS V14.01,2013-01-26 06:39:00,
2013-01-26 00:45:00,46.9,41.1,30.23,East,88,0.0,3.0,80,0.00,,SKC,0.00,VWS V14.01,2013-01-26 06:45:00,
2013-01-26 00:51:00,46.9,41.4,30.23,NW,308,0.0,3.0,81,0.00,,SKC,0.00,VWS V14.01,2013-01-26 06:51:00,
2013-01-26 00:57:00,46.9,41.4,30.24,West,274,0.0,3.0,81,0.00,,SKC,0.00,VWS V14.01,2013-01-26 06:57:00,
2013-01-26 01:00:00,46.8,41.3,30.24,North,355,1.0,3.0,81,0.00,,SKC,0.00,VWS V14.01,2013-01-26 07:00:00,
2013-01-26 01:03:00,46.8,41.3,30.25,NW,324,0.0,3.0,81,0.00,,SKC,0.00,VWS V14.01,2013-01-26 07:03:00,
2013-01-26 01:09:00,46.7,41.2,30.25,NW,315,2.0,6.0,81,0.00,,SKC,0.00,VWS V14.01,2013-01-26 07:09:00,
2013-01-26 01:15:00,46.5,41.0,30.22,East,88,0.0,6.0,81,0.00,,SKC,0.00,VWS V14.01,2013-01-26 07:15:00,
2013-01-26 01:21:00,46.3,41.1,30.22,ENE,67,2.0,6.0,82,0.00,,SKC,0.00,VWS V14.01,2013-01-26 07:21:00,
2013-01-26 01:27:00,46.3,41.1,30.22,ENE,67,0.0,6.0,82,0.00,,SKC,0.00,VWS V14.01,2013-01-26 07:27:00,
2013-01-26 01:30:00,46.3,41.1,30.22,NE,40,1.0,6.0,82,0.00,,SKC,0.00,VWS V14.01,2013-01-26 07:30:00,
2013-01-26 01:33:00,46.3,41.1,30.23,NE,40,0.0,2.0,82,0.00,,SKC,0.00,VWS V14.01,2013-01-26 07:33:00,
2013-01-26 01:39:00,46.3,41.1,30.23,North,5,1.0,2.0,82,0.00,,SKC,0.00,VWS V14.01,2013-01-26 07:39:00,
2013-01-26 01:45:00,46.4,41.5,30.23,NNE,17,1.0,5.0,83,0.00,,SKC,0.00,VWS V14.01,2013-01-26 07:45:00,
2013-01-26 01:51:00,46.3,41.1,30.23,ENE,59,0.0,5.0,82,0.00,,SKC,0.00,VWS V14.01,2013-01-26 07:51:00,
2013-01-26 01:57:00,46.2,41.3,30.22,North,355,1.0,5.0,83,0.00,,SKC,0.00,VWS V14.01,2013-01-26 07:57:00,
2013-01-26 02:00:00,46.1,41.2,30.22,ENE,76,0.0,5.0,83,0.00,,SKC,0.00,VWS V14.01,2013-01-26 08:00:00,
2013-01-26 02:03:00,46.1,41.2,30.22,NNE,29,0.0,3.0,83,0.00,,SKC,0.00,VWS V14.01,2013-01-26 08:03:00,
2013-01-26 02:09:00,46.1,41.2,30.22,NNW,346,0.0,3.0,83,0.00,,SKC,0.00,VWS V14.01,2013-01-26 08:09:00,
2013-01-26 02:15:00,46.1,41.2,30.23,NNW,331,0.0,3.0,83,0.00,,SKC,0.00,VWS V14.01,2013-01-26 08:15:00,
2013-01-26 02:21:00,46.1,41.5,30.23,NW,321,2.0,3.0,84,0.00,,SKC,0.00,VWS V14.01,2013-01-26 08:21:00,
2013-01-26 02:27:00,46.1,41.5,30.23,NNW,329,1.0,3.0,84,0.00,,SKC,0.00,VWS V14.01,2013-01-26 08:27:00,
2013-01-26 02:30:00,46.1,41.5,30.24,NNW,336,1.0,3.0,84,0.00,,SKC,0.00,VWS V14.01,2013-01-26 08:30:00,
2013-01-26 02:33:00,46.1,41.5,30.23,NW,313,0.0,2.0,84,0.00,,SKC,0.00,VWS V14.01,2013-01-26 08:33:00,
2013-01-26 02:39:00,46.0,41.4,30.22,NE,35,1.0,3.0,84,0.00,,SKC,0.00,VWS V14.01,2013-01-26 08:39:00,
2013-01-26 02:45:00,46.0,41.8,30.22,NE,34,1.0,3.0,85,0.00,,SKC,0.00,VWS V14.01,2013-01-26 08:45:00,
2013-01-26 02:51:00,45.9,41.7,30.22,North,350,2.0,3.0,85,0.00,,SKC,0.00,VWS V14.01,2013-01-26 08:51:00,
2013-01-26 02:57:00,45.8,41.9,30.22,NE,37,2.0,3.0,86,0.00,,SKC,0.00,VWS V14.01,2013-01-26 08:57:00,
2013-01-26 03:00:00,45.8,41.9,30.22,NW,310,2.0,3.0,86,0.00,,SKC,0.00,VWS V14.01,2013-01-26 09:00:00,
2013-01-26 03:03:00,45.8,41.9,30.22,WNW,302,1.0,2.0,86,0.00,,SKC,0.00,VWS V14.01,2013-01-26 09:03:00,
2013-01-26 03:09:00,45.7,42.1,30.23,NNW,332,2.0,6.0,87,0.00,,SKC,0.00,VWS V14.01,2013-01-26 09:09:00,
2013-01-26 03:15:00,45.6,42.3,30.23,North,360,0.0,6.0,88,0.00,,SKC,0.00,VWS V14.01,2013-01-26 09:15:00,
2013-01-26 03:21:00,45.4,42.1,30.22,NW,305,1.0,6.0,88,0.00,,SKC,0.00,VWS V14.01,2013-01-26 09:21:00,
2013-01-26 03:27:00,45.3,42.3,30.22,NW,321,1.0,6.0,89,0.00,,SKC,0.00,VWS V14.01,2013-01-26 09:27:00,
2013-01-26 03:30:00,45.3,42.3,30.22,NW,325,1.0,6.0,89,0.00,,SKC,0.00,VWS V14.01,2013-01-26 09:30:00,
2013-01-26 03:33:00,45.2,42.5,30.22,NNW,342,1.0,3.0,90,0.00,,SKC,0.00,VWS V14.01,2013-01-26 09:33:00,
2013-01-26 03:39:00,45.1,42.3,30.21,NNW,332,0.0,3.0,90,0.00,,SKC,0.00,VWS V14.01,2013-01-26 09:39:00,
2013-01-26 03:45:00,45.1,42.3,30.21,NNW,332,0.0,3.0,90,0.00,,SKC,0.00,VWS V14.01,2013-01-26 09:45:00,
2013-01-26 03:51:00,45.1,42.6,30.21,NNW,332,0.0,3.0,91,0.00,,SKC,0.00,VWS V14.01,2013-01-26 09:51:00,
2013-01-26 03:57:00,45.0,42.5,30.21,NNW,332,0.0,3.0,91,0.00,,SKC,0.00,VWS V14.01,2013-01-26 09:57:00,
2013-01-26 04:00:00,45.0,42.5,30.21,NNW,347,0.0,3.0,91,0.00,,SKC,0.00,VWS V14.01,2013-01-26 10:00:00,
2013-01-26 04:03:00,44.9,42.4,30.21,NNW,347,0.0,0.0,91,0.00,,SKC,0.00,VWS V14.01,2013-01-26 10:03:00,
2013-01-26 04:09:00,44.9,42.4,30.21,North,350,0.0,2.0,91,0.00,,SKC,0.00,VWS V14.01,2013-01-26 10:09:00,
2013-01-26 04:15:00,44.9,42.7,30.21,North,5,0.0,2.0,92,0.00,,SKC,0.00,VWS V14.01,2013-01-26 10:15:00,
2013-01-26 04:21:00,44.9,42.7,30.21,NNW,327,0.0,2.0,92,0.00,,SKC,0.00,VWS V14.01,2013-01-26 10:21:00,
2013-01-26 04:27:00,44.9,42.7,30.21,North,350,0.0,2.0,92,0.00,,SKC,0.00,VWS V14.01,2013-01-26 10:27:00,
2013-01-26 04:30:00,44.9,42.7,30.21,NNE,17,1.0,2.0,92,0.00,,SKC,0.00,VWS V14.01,2013-01-26 10:30:00,
2013-01-26 04:33:00,44.9,42.7,30.21,NNE,24,1.0,3.0,92,0.00,,SKC,0.00,VWS V14.01,2013-01-26 10:33:00,
2013-01-26 04:39:00,44.8,42.9,30.21,NNE,30,0.0,3.0,93,0.00,,SKC,0.00,VWS V14.01,2013-01-26 10:39:00,
2013-01-26 04:45:00,44.8,42.9,30.21,NE,44,0.0,3.0,93,0.00,,SKC,0.00,VWS V14.01,2013-01-26 10:45:00,
2013-01-26 04:51:00,44.8,42.9,30.21,NNW,336,0.0,3.0,93,0.00,,SKC,0.00,VWS V14.01,2013-01-26 10:51:00,
2013-01-26 04:57:00,44.8,42.9,30.21,NNE,21,1.0,3.0,93,0.01,,SKC,0.01,VWS V14.01,2013-01-26 10:57:00,
2013-01-26 05:00:00,44.9,43.0,30.20,NNE,21,0.0,3.0,93,0.01,,SKC,0.01,VWS V14.01,2013-01-26 11:00:00,
2013-01-26 05:03:00,44.9,43.0,30.20,NNE,28,1.0,2.0,93,0.01,,SKC,0.01,VWS V14.01,2013-01-26 11:03:00,
2013-01-26 05:09:00,45.0,43.1,30.21,NE,50,0.0,2.0,93,0.01,,SKC,0.01,VWS V14.01,2013-01-26 11:09:00,
2013-01-26 05:15:00,44.9,43.0,30.20,NW,322,0.0,2.0,93,0.01,,SKC,0.01,VWS V14.01,2013-01-26 11:15:00,
2013-01-26 05:21:00,44.9,43.0,30.20,NNW,343,0.0,2.0,93,0.01,,SKC,0.01,VWS V14.01,2013-01-26 11:21:00,
2013-01-26 05:27:00,44.9,43.0,30.20,NNW,343,1.0,2.0,93,0.01,,SKC,0.01,VWS V14.01,2013-01-26 11:27:00,
2013-01-26 05:30:00,44.9,43.0,30.20,North,355,0.0,2.0,93,0.01,,SKC,0.01,VWS V14.01,2013-01-26 11:30:00,
2013-01-26 05:33:00,45.0,43.1,30.20,WNW,303,0.0,4.0,93,0.01,,SKC,0.01,VWS V14.01,2013-01-26 11:33:00,
2013-01-26 05:39:00,44.9,43.0,30.20,NW,304,1.0,4.0,93,0.01,,SKC,0.01,VWS V14.01,2013-01-26 11:39:00,
2013-01-26 05:45:00,45.0,43.4,30.21,NNW,329,0.0,4.0,94,0.01,,SKC,0.01,VWS V14.01,2013-01-26 11:45:00,
2013-01-26 05:51:00,44.9,43.3,30.20,NNW,342,0.0,4.0,94,0.01,,SKC,0.01,VWS V14.01,2013-01-26 11:51:00,
2013-01-26 05:57:00,45.0,43.4,30.21,NNW,341,1.0,4.0,94,0.01,,SKC,0.01,VWS V14.01,2013-01-26 11:57:00,
2013-01-26 06:00:00,45.0,43.4,30.21,NNW,341,0.0,4.0,94,0.01,,SKC,0.01,VWS V14.01,2013-01-26 12:00:00,
2013-01-26 06:03:00,45.0,43.4,30.21,NNW,341,0.0,1.0,94,0.00,,SKC,0.01,VWS V14.01,2013-01-26 12:03:00,
2013-01-26 06:09:00,45.0,43.4,30.21,NNE,24,0.0,2.0,94,0.00,,SKC,0.01,VWS V14.01,2013-01-26 12:09:00,
2013-01-26 06:15:00,45.1,43.5,30.21,NNW,338,2.0,2.0,94,0.00,,SKC,0.01,VWS V14.01,2013-01-26 12:15:00,
2013-01-26 06:21:00,45.1,43.5,30.21,NNW,348,0.0,2.0,94,0.00,,SKC,0.01,VWS V14.01,2013-01-26 12:21:00,
2013-01-26 06:27:00,45.2,43.6,30.21,NNW,348,0.0,2.0,94,0.00,,SKC,0.01,VWS V14.01,2013-01-26 12:27:00,
2013-01-26 06:30:00,45.2,43.6,30.21,NNW,348,0.0,2.0,94,0.00,,SKC,0.01,VWS V14.01,2013-01-26 12:30:00,
2013-01-26 06:33:00,45.2,43.6,30.21,NNW,348,0.0,1.0,94,0.00,,SKC,0.01,VWS V14.01,2013-01-26 12:33:00,
2013-01-26 06:39:00,45.2,43.6,30.21,North,355,0.0,2.0,94,0.00,,SKC,0.01,VWS V14.01,2013-01-26 12:39:00,
2013-01-26 06:45:00,45.2,43.6,30.21,North,355,0.0,2.0,94,0.00,,SKC,0.01,VWS V14.01,2013-01-26 12:45:00,
2013-01-26 06:51:00,45.3,43.7,30.22,NW,320,0.0,3.0,94,0.00,,SKC,0.01,VWS V14.01,2013-01-26 12:51:00,
2013-01-26 06:57:00,45.4,43.8,30.22,NW,320,0.0,3.0,94,0.00,,SKC,0.01,VWS V14.01,2013-01-26 12:57:00,
2013-01-26 07:00:00,45.4,43.8,30.22,NW,320,1.0,3.0,94,0.00,,SKC,0.01,VWS V14.01,2013-01-26 13:00:00,
2013-01-26 07:03:00,45.4,43.8,30.23,NNW,340,0.0,1.0,94,0.00,,SKC,0.01,VWS V14.01,2013-01-26 13:03:00,
2013-01-26 07:09:00,45.5,44.2,30.23,NW,323,0.0,2.0,95,0.00,,SKC,0.01,VWS V14.01,2013-01-26 13:09:00,
2013-01-26 07:15:00,45.5,44.2,30.23,NW,323,0.0,2.0,95,0.00,,SKC,0.01,VWS V14.01,2013-01-26 13:15:00,
2013-01-26 07:21:00,45.5,43.9,30.23,NNW,337,0.0,2.0,94,0.00,,SKC,0.01,VWS V14.01,2013-01-26 13:21:00,
2013-01-26 07:27:00,45.6,44.2,30.23,NNW,346,0.0,2.0,95,0.00,,SKC,0.01,VWS V14.01,2013-01-26 13:27:00,
2013-01-26 07:30:00,45.6,44.2,30.23,NNW,346,0.0,2.0,95,0.00,,SKC,0.01,VWS V14.01,2013-01-26 13:30:00,
2013-01-26 07:33:00,45.6,44.2,30.23,NNW,346,0.0,0.0,95,0.00,,SKC,0.01,VWS V14.01,2013-01-26 13:33:00,
2013-01-26 07:40:00,45.8,44.5,30.23,NNW,346,0.0,2.0,95,0.00,,SKC,0.01,VWS V14.01,2013-01-26 13:40:00,
2013-01-26 07:46:00,45.9,44.5,30.23,North,350,0.0,2.0,95,0.00,,SKC,0.01,VWS V14.01,2013-01-26 13:46:00,
2013-01-26 07:52:00,46.0,44.7,30.23,North,350,0.0,2.0,95,0.00,,SKC,0.01,VWS V14.01,2013-01-26 13:52:00,
2013-01-26 07:58:00,46.1,44.8,30.23,North,350,0.0,2.0,95,0.00,,SKC,0.01,VWS V14.01,2013-01-26 13:58:00,
2013-01-26 08:00:00,46.2,44.8,30.23,North,350,0.0,2.0,95,0.00,,SKC,0.01,VWS V14.01,2013-01-26 14:00:00,
2013-01-26 08:04:00,46.2,44.8,30.23,North,350,0.0,0.0,95,0.00,,SKC,0.01,VWS V14.01,2013-01-26 14:04:00,
2013-01-26 08:10:00,46.4,45.0,30.23,North,350,0.0,1.0,95,0.00,,SKC,0.01,VWS V14.01,2013-01-26 14:10:00,
2013-01-26 08:16:00,46.5,45.2,30.23,NNE,14,0.0,2.0,95,0.00,,SKC,0.01,VWS V14.01,2013-01-26 14:16:00,
2013-01-26 08:22:00,46.7,45.3,30.24,NNE,14,0.0,3.0,95,0.00,,SKC,0.01,VWS V14.01,2013-01-26 14:22:00,
2013-01-26 08:28:00,47.0,45.7,30.24,NNE,20,2.0,3.0,95,0.00,,SKC,0.01,VWS V14.01,2013-01-26 14:28:00,
2013-01-26 08:30:00,47.1,45.7,30.24,ENE,63,0.0,3.0,95,0.00,,SKC,0.01,VWS V14.01,2013-01-26 14:30:00,
2013-01-26 08:34:00,47.2,45.8,30.24,East,89,3.0,3.0,95,0.00,,SKC,0.01,VWS V14.01,2013-01-26 14:34:00,
2013-01-26 08:40:00,47.4,46.0,30.24,East,91,3.0,7.0,95,0.00,,SKC,0.01,VWS V14.01,2013-01-26 14:40:00,
2013-01-26 08:46:00,47.4,46.0,30.24,ENE,61,1.0,7.0,95,0.00,,SKC,0.01,VWS V14.01,2013-01-26 14:46:00,
2013-01-26 08:52:00,47.5,46.1,30.24,East,88,1.0,7.0,95,0.00,,SKC,0.01,VWS V14.01,2013-01-26 14:52:00,
2013-01-26 08:58:00,47.5,46.1,30.24,ESE,114,2.0,7.0,95,0.00,,SKC,0.01,VWS V14.01,2013-01-26 14:58:00,
2013-01-26 09:00:00,47.5,46.1,30.24,East,88,1.0,7.0,95,0.00,,SKC,0.01,VWS V14.01,2013-01-26 15:00:00,
2013-01-26 09:04:00,47.5,46.1,30.24,East,83,2.0,5.0,95,0.00,,SKC,0.01,VWS V14.01,2013-01-26 15:04:00,
2013-01-26 09:10:00,47.6,46.2,30.25,East,86,1.0,6.0,95,0.00,,SKC,0.01,VWS V14.01,2013-01-26 15:10:00,
2013-01-26 09:16:00,47.5,46.1,30.25,ENE,69,1.0,6.0,95,0.00,,SKC,0.01,VWS V14.01,2013-01-26 15:16:00,
2013-01-26 09:22:00,47.6,46.2,30.25,ENE,66,0.0,6.0,95,0.00,,SKC,0.01,VWS V14.01,2013-01-26 15:22:00,
2013-01-26 09:28:00,47.6,46.2,30.26,East,90,2.0,6.0,95,0.00,,SKC,0.01,VWS V14.01,2013-01-26 15:28:00,
2013-01-26 09:30:00,47.5,46.1,30.26,East,80,3.0,6.0,95,0.00,,SKC,0.01,VWS V14.01,2013-01-26 15:30:00,
2013-01-26 09:34:00,47.4,46.0,30.26,East,86,1.0,6.0,95,0.00,,SKC,0.01,VWS V14.01,2013-01-26 15:34:00,
2013-01-26 09:40:00,47.5,46.1,30.26,East,88,2.0,6.0,95,0.00,,SKC,0.01,VWS V14.01,2013-01-26 15:40:00,
2013-01-26 09:46:00,47.4,46.0,30.26,SE,134,1.0,6.0,95,0.00,,SKC,0.01,VWS V14.01,2013-01-26 15:46:00,
2013-01-26 09:52:00,47.6,46.2,30.26,ESE,112,3.0,6.0,95,0.00,,SKC,0.01,VWS V14.01,2013-01-26 15:52:00,
2013-01-26 09:58:00,47.6,46.2,30.26,East,92,2.0,6.0,95,0.00,,SKC,0.01,VWS V14.01,2013-01-26 15:58:00,
2013-01-26 10:00:00,47.5,46.1,30.26,East,89,1.0,6.0,95,0.00,,SKC,0.01,VWS V14.01,2013-01-26 16:00:00,
2013-01-26 10:04:00,47.6,46.2,30.26,ENE,74,3.0,6.0,95,0.01,,SKC,0.02,VWS V14.01,2013-01-26 16:04:00,
2013-01-26 10:10:00,47.6,46.2,30.26,ENE,75,3.0,6.0,95,0.01,,SKC,0.02,VWS V14.01,2013-01-26 16:10:00,
2013-01-26 10:16:00,47.8,46.7,30.26,East,80,1.0,6.0,96,0.01,,SKC,0.02,VWS V14.01,2013-01-26 16:16:00,
2013-01-26 10:22:00,47.8,46.7,30.26,East,90,2.0,6.0,96,0.01,,SKC,0.02,VWS V14.01,2013-01-26 16:22:00,
2013-01-26 10:28:00,47.9,46.8,30.26,NE,49,1.0,6.0,96,0.01,,SKC,0.02,VWS V14.01,2013-01-26 16:28:00,
2013-01-26 10:30:00,47.9,46.8,30.27,East,99,2.0,6.0,96,0.01,,SKC,0.02,VWS V14.01,2013-01-26 16:30:00,
2013-01-26 10:34:00,47.9,46.8,30.27,East,87,1.0,5.0,96,0.01,,SKC,0.02,VWS V14.01,2013-01-26 16:34:00,
2013-01-26 10:40:00,47.9,46.8,30.27,East,88,5.0,6.0,96,0.01,,SKC,0.02,VWS V14.01,2013-01-26 16:40:00,
2013-01-26 10:46:00,47.9,46.8,30.27,East,92,2.0,6.0,96,0.01,,SKC,0.02,VWS V14.01,2013-01-26 16:46:00,
2013-01-26 10:52:00,47.9,46.8,30.27,East,91,5.0,7.0,96,0.01,,SKC,0.02,VWS V14.01,2013-01-26 16:52:00,
2013-01-26 10:58:00,48.1,47.0,30.27,ESE,104,1.0,7.0,96,0.01,,SKC,0.02,VWS V14.01,2013-01-26 16:58:00,
2013-01-26 11:00:00,48.1,47.0,30.27,ENE,74,3.0,7.0,96,0.01,,SKC,0.02,VWS V14.01,2013-01-26 17:00:00,
2013-01-26 11:04:00,48.2,47.1,30.27,East,94,6.0,6.0,96,0.01,,SKC,0.02,VWS V14.01,2013-01-26 17:04:00,
2013-01-26 11:10:00,48.5,47.4,30.27,NE,49,2.0,6.0,96,0.01,,SKC,0.02,VWS V14.01,2013-01-26 17:10:00,
2013-01-26 11:16:00,48.6,47.5,30.27,East,79,1.0,6.0,96,0.01,,SKC,0.02,VWS V14.01,2013-01-26 17:16:00,
2013-01-26 11:22:00,48.6,47.5,30.26,East,96,3.0,6.0,96,0.01,,SKC,0.02,VWS V14.01,2013-01-26 17:22:00,
2013-01-26 11:28:00,48.5,47.4,30.27,ENE,65,1.0,6.0,96,0.01,,SKC,0.02,VWS V14.01,2013-01-26 17:28:00,
2013-01-26 11:30:00,48.4,47.3,30.27,East,98,1.0,6.0,96,0.01,,SKC,0.02,VWS V14.01,2013-01-26 17:30:00,
2013-01-26 11:34:00,48.5,47.4,30.27,NE,49,1.0,5.0,96,0.00,,SKC,0.02,VWS V14.01,2013-01-26 17:34:00,
2013-01-26 11:40:00,48.5,47.4,30.26,East,100,2.0,5.0,96,0.00,,SKC,0.02,VWS V14.01,2013-01-26 17:40:00,
2013-01-26 11:46:00,48.5,47.4,30.26,East,87,2.0,6.0,96,0.00,,SKC,0.02,VWS V14.01,2013-01-26 17:46:00,
2013-01-26 11:52:00,48.4,47.3,30.26,East,88,1.0,6.0,96,0.00,,SKC,0.02,VWS V14.01,2013-01-26 17:52:00,
2013-01-26 11:58:00,48.5,47.4,30.25,East,99,1.0,6.0,96,0.00,,SKC,0.02,VWS V14.01,2013-01-26 17:58:00,
2013-01-26 12:00:00,48.5,47.4,30.25,East,91,3.0,6.0,96,0.00,,SKC,0.02,VWS V14.01,2013-01-26 18:00:00,
2013-01-26 12:04:00,48.7,47.6,30.26,NE,50,2.0,3.0,96,0.00,,SKC,0.02,VWS V14.01,2013-01-26 18:04:00,
2013-01-26 12:10:00,48.7,47.6,30.25,East,99,2.0,6.0,96,0.00,,SKC,0.02,VWS V14.01,2013-01-26 18:10:00,
2013-01-26 12:16:00,48.7,47.6,30.25,East,100,1.0,6.0,96,0.00,,SKC,0.02,VWS V14.01,2013-01-26 18:16:00,
2013-01-26 12:22:00,48.8,47.7,30.24,ESE,109,3.0,6.0,96,0.00,,SKC,0.02,VWS V14.01,2013-01-26 18:22:00,
2013-01-26 12:28:00,49.1,48.0,30.24,East,92,2.0,6.0,96,0.00,,SKC,0.02,VWS V14.01,2013-01-26 18:28:00,
2013-01-26 12:30:00,49.2,48.1,30.24,ESE,123,3.0,6.0,96,0.00,,SKC,0.02,VWS V14.01,2013-01-26 18:30:00,
2013-01-26 12:34:00,49.3,48.2,30.24,ESE,114,0.0,5.0,96,0.00,,SKC,0.02,VWS V14.01,2013-01-26 18:34:00,
2013-01-26 12:40:00,49.6,48.5,30.23,ESE,103,4.0,6.0,96,0.00,,SKC,0.02,VWS V14.01,2013-01-26 18:40:00,
2013-01-26 12:46:00,49.6,48.2,30.23,ENE,61,1.0,7.0,95,0.00,,SKC,0.02,VWS V14.01,2013-01-26 18:46:00,
2013-01-26 12:52:00,49.9,48.5,30.23,ENE,67,3.0,7.0,95,0.00,,SKC,0.02,VWS V14.01,2013-01-26 18:52:00,
2013-01-26 12:58:00,49.6,48.2,30.23,East,94,3.0,7.0,95,0.00,,SKC,0.02,VWS V14.01,2013-01-26 18:58:00,
2013-01-26 13:00:00,49.5,48.1,30.23,East,90,1.0,7.0,95,0.00,,SKC,0.02,VWS V14.01,2013-01-26 19:00:00,
2013-01-26 13:04:00,49.6,48.2,30.22,East,90,2.0,3.0,95,0.00,,SKC,0.02,VWS V14.01,2013-01-26 19:04:00,
2013-01-26 13:10:00,49.5,47.8,30.22,East,81,2.0,6.0,94,0.00,,SKC,0.02,VWS V14.01,2013-01-26 19:10:00,
2013-01-26 13:16:00,49.5,47.8,30.21,East,84,1.0,6.0,94,0.00,,SKC,0.02,VWS V14.01,2013-01-26 19:16:00,
2013-01-26 13:22:00,49.7,48.0,30.21,ESE,111,2.0,6.0,94,0.00,,SKC,0.02,VWS V14.01,2013-01-26 19:22:00,
2013-01-26 13:28:00,49.9,48.2,30.21,ESE,103,2.0,6.0,94,0.00,,SKC,0.02,VWS V14.01,2013-01-26 19:28:00,
2013-01-26 13:30:00,49.8,48.2,30.20,ESE,106,0.0,6.0,94,0.00,,SKC,0.02,VWS V14.01,2013-01-26 19:30:00,
2013-01-26 13:34:00,49.9,48.2,30.20,East,88,2.0,5.0,94,0.00,,SKC,0.02,VWS V14.01,2013-01-26 19:34:00,
2013-01-26 13:40:00,50.1,48.4,30.20,ENE,68,2.0,5.0,94,0.00,,SKC,0.02,VWS V14.01,2013-01-26 19:40:00,
2013-01-26 13:46:00,50.3,48.6,30.20,ENE,65,3.0,5.0,94,0.00,,SKC,0.02,VWS V14.01,2013-01-26 19:46:00,
2013-01-26 13:52:00,50.3,48.6,30.19,East,84,1.0,5.0,94,0.00,,SKC,0.02,VWS V14.01,2013-01-26 19:52:00,
2013-01-26 13:58:00,50.2,48.3,30.19,NE,51,2.0,7.0,93,0.00,,SKC,0.02,VWS V14.01,2013-01-26 19:58:00,
2013-01-26 14:00:00,50.2,48.5,30.19,NE,53,3.0,7.0,94,0.00,,SKC,0.02,VWS V14.01,2013-01-26 20:00:00,
2013-01-26 14:04:00,50.3,48.6,30.19,ENE,67,4.0,5.0,94,0.00,,SKC,0.02,VWS V14.01,2013-01-26 20:04:00,
2013-01-26 14:10:00,50.4,48.5,30.19,ENE,57,2.0,6.0,93,0.00,,SKC,0.02,VWS V14.01,2013-01-26 20:10:00,
2013-01-26 14:16:00,50.5,48.6,30.18,East,94,3.0,8.0,93,0.00,,SKC,0.02,VWS V14.01,2013-01-26 20:16:00,
2013-01-26 14:22:00,50.4,48.5,30.18,East,94,1.0,8.0,93,0.00,,SKC,0.02,VWS V14.01,2013-01-26 20:22:00,
2013-01-26 14:28:00,50.5,48.6,30.19,ENE,78,3.0,8.0,93,0.00,,SKC,0.02,VWS V14.01,2013-01-26 20:28:00,
2013-01-26 14:30:00,50.6,48.7,30.19,NE,34,1.0,8.0,93,0.00,,SKC,0.02,VWS V14.01,2013-01-26 20:30:00,
2013-01-26 14:35:00,50.6,48.7,30.19,ESE,115,1.0,3.0,93,0.00,,SKC,0.02,VWS V14.01,2013-01-26 20:35:00,
2013-01-26 14:41:00,50.4,48.5,30.18,East,98,1.0,6.0,93,0.00,,SKC,0.02,VWS V14.01,2013-01-26 20:41:00,
2013-01-26 14:47:00,50.4,48.5,30.18,ENE,60,3.0,7.0,93,0.00,,SKC,0.02,VWS V14.01,2013-01-26 20:47:00,
2013-01-26 14:53:00,50.3,48.1,30.18,East,89,5.0,7.0,92,0.00,,SKC,0.02,VWS V14.01,2013-01-26 20:53:00,
2013-01-26 14:59:00,50.2,48.0,30.19,ESE,120,3.0,7.0,92,0.00,,SKC,0.02,VWS V14.01,2013-01-26 20:59:00,
2013-01-26 15:00:00,50.1,47.9,30.18,East,89,1.0,7.0,92,0.00,,SKC,0.02,VWS V14.01,2013-01-26 21:00:00,
2013-01-26 15:05:00,50.1,48.2,30.18,East,79,1.0,5.0,93,0.00,,SKC,0.02,VWS V14.01,2013-01-26 21:05:00,
2013-01-26 15:11:00,50.1,48.2,30.18,SE,124,3.0,7.0,93,0.00,,SKC,0.02,VWS V14.01,2013-01-26 21:11:00,
2013-01-26 15:17:00,50.1,48.2,30.19,East,88,1.0,7.0,93,0.00,,SKC,0.02,VWS V14.01,2013-01-26 21:17:00,
2013-01-26 15:23:00,50.1,48.2,30.19,ESE,121,1.0,7.0,93,0.00,,SKC,0.02,VWS V14.01,2013-01-26 21:23:00,
2013-01-26 15:29:00,50.2,48.3,30.19,ENE,74,3.0,8.0,93,0.00,,SKC,0.02,VWS V14.01,2013-01-26 21:29:00,
2013-01-26 15:30:00,50.1,47.9,30.19,East,80,3.0,8.0,92,0.00,,SKC,0.02,VWS V14.01,2013-01-26 21:30:00,
2013-01-26 15:35:00,50.1,47.9,30.18,East,86,6.0,6.0,92,0.00,,SKC,0.02,VWS V14.01,2013-01-26 21:35:00,
2013-01-26 15:41:00,50.1,48.2,30.18,East,80,2.0,7.0,93,0.00,,SKC,0.02,VWS V14.01,2013-01-26 21:41:00,
2013-01-26 15:47:00,50.2,48.3,30.18,ENE,76,3.0,7.0,93,0.00,,SKC,0.02,VWS V14.01,2013-01-26 21:47:00,
2013-01-26 15:53:00,50.3,48.4,30.18,ESE,103,4.0,7.0,93,0.00,,SKC,0.02,VWS V14.01,2013-01-26 21:53:00,
2013-01-26 15:59:00,50.3,48.4,30.18,ESE,120,4.0,7.0,93,0.00,,SKC,0.02,VWS V14.01,2013-01-26 21:59:00,
2013-01-26 16:00:00,50.3,48.4,30.18,East,91,2.0,7.0,93,0.00,,SKC,0.02,VWS V14.01,2013-01-26 22:00:00,
2013-01-26 16:05:00,50.1,47.9,30.18,East,90,1.0,6.0,92,0.00,,SKC,0.02,VWS V14.01,2013-01-26 22:05:00,
2013-01-26 16:11:00,50.0,48.1,30.18,ENE,65,2.0,6.0,93,0.00,,SKC,0.02,VWS V14.01,2013-01-26 22:11:00,
2013-01-26 16:17:00,49.9,48.0,30.19,East,96,2.0,6.0,93,0.00,,SKC,0.02,VWS V14.01,2013-01-26 22:17:00,
2013-01-26 16:23:00,49.9,48.0,30.18,East,94,2.0,6.0,93,0.00,,SKC,0.02,VWS V14.01,2013-01-26 22:23:00,
2013-01-26 16:29:00,49.9,48.0,30.18,ENE,76,1.0,6.0,93,0.00,,SKC,0.02,VWS V14.01,2013-01-26 22:29:00,
2013-01-26 16:30:00,49.9,48.0,30.18,East,86,6.0,6.0,93,0.00,,SKC,0.02,VWS V14.01,2013-01-26 22:30:00,
2013-01-26 16:35:00,49.8,47.9,30.18,ENE,78,3.0,7.0,93,0.00,,SKC,0.02,VWS V14.01,2013-01-26 22:35:00,
2013-01-26 16:41:00,49.7,47.8,30.18,ESE,118,3.0,7.0,93,0.00,,SKC,0.02,VWS V14.01,2013-01-26 22:41:00,
2013-01-26 16:47:00,49.6,47.7,30.18,ESE,102,3.0,7.0,93,0.00,,SKC,0.02,VWS V14.01,2013-01-26 22:47:00,
2013-01-26 16:53:00,49.7,47.8,30.18,ENE,78,2.0,7.0,93,0.00,,SKC,0.02,VWS V14.01,2013-01-26 22:53:00,
2013-01-26 16:59:00,49.6,47.7,30.18,East,101,5.0,7.0,93,0.00,,SKC,0.02,VWS V14.01,2013-01-26 22:59:00,
2013-01-26 17:00:00,49.6,47.7,30.18,East,94,2.0,7.0,93,0.00,,SKC,0.02,VWS V14.01,2013-01-26 23:00:00,
2013-01-26 17:05:00,49.6,47.7,30.18,ESE,103,3.0,4.0,93,0.00,,SKC,0.02,VWS V14.01,2013-01-26 23:05:00,
2013-01-26 17:11:00,49.6,47.7,30.18,ESE,117,3.0,7.0,93,0.00,,SKC,0.02,VWS V14.01,2013-01-26 23:11:00,
2013-01-26 17:17:00,49.6,47.7,30.18,ESE,111,2.0,7.0,93,0.00,,SKC,0.02,VWS V14.01,2013-01-26 23:17:00,
2013-01-26 17:23:00,49.6,47.7,30.19,ESE,116,3.0,7.0,93,0.00,,SKC,0.02,VWS V14.01,2013-01-26 23:23:00,
2013-01-26 17:29:00,49.4,47.5,30.19,East,84,3.0,7.0,93,0.00,,SKC,0.02,VWS V14.01,2013-01-26 23:29:00,
2013-01-26 17:30:00,49.4,47.5,30.19,SE,131,1.0,7.0,93,0.00,,SKC,0.02,VWS V14.01,2013-01-26 23:30:00,
2013-01-26 17:35:00,49.3,47.4,30.19,East,91,5.0,5.0,93,0.00,,SKC,0.02,VWS V14.01,2013-01-26 23:35:00,
2013-01-26 17:41:00,49.3,47.4,30.19,East,81,3.0,6.0,93,0.00,,SKC,0.02,VWS V14.01,2013-01-26 23:41:00,
2013-01-26 17:47:00,49.2,47.3,30.18,SE,134,1.0,8.0,93,0.00,,SKC,0.02,VWS V14.01,2013-01-26 23:47:00,
2013-01-26 17:53:00,49.2,47.3,30.18,ENE,69,5.0,8.0,93,0.00,,SKC,0.02,VWS V14.01,2013-01-26 23:53:00,
2013-01-26 17:59:00,49.1,47.2,30.18,ESE,116,0.0,8.0,93,0.00,,SKC,0.02,VWS V14.01,2013-01-26 23:59:00,
2013-01-26 18:00:00,49.1,47.2,30.18,ESE,115,3.0,8.0,93,0.00,,SKC,0.02,VWS V14.01,2013-01-27 00:00:00,
2013-01-26 18:05:00,49.1,47.5,30.18,ESE,111,2.0,6.0,94,0.00,,SKC,0.02,VWS V14.01,2013-01-27 00:05:00,
2013-01-26 18:11:00,49.0,47.3,30.18,East,82,3.0,7.0,94,0.00,,SKC,0.02,VWS V14.01,2013-01-27 00:11:00,
2013-01-26 18:17:00,48.9,47.2,30.18,SSE,155,2.0,7.0,94,0.00,,SKC,0.02,VWS V14.01,2013-01-27 00:17:00,
2013-01-26 18:23:00,48.8,47.2,30.18,East,84,3.0,7.0,94,0.00,,SKC,0.02,VWS V14.01,2013-01-27 00:23:00,
2013-01-26 18:29:00,48.8,47.2,30.18,East,101,3.0,7.0,94,0.00,,SKC,0.02,VWS V14.01,2013-01-27 00:29:00,
2013-01-26 18:30:00,48.8,47.2,30.18,East,94,5.0,7.0,94,0.00,,SKC,0.02,VWS V14.01,2013-01-27 00:30:00,
2013-01-26 18:35:00,48.8,47.2,30.18,ESE,123,4.0,7.0,94,0.00,,SKC,0.02,VWS V14.01,2013-01-27 00:35:00,
2013-01-26 18:41:00,48.7,47.0,30.18,East,90,2.0,7.0,94,0.00,,SKC,0.02,VWS V14.01,2013-01-27 00:41:00,
2013-01-26 18:47:00,48.7,47.0,30.18,ESE,122,2.0,7.0,94,0.00,,SKC,0.02,VWS V14.01,2013-01-27 00:47:00,
2013-01-26 18:53:00,48.6,47.0,30.18,ESE,105,2.0,7.0,94,0.00,,SKC,0.02,VWS V14.01,2013-01-27 00:53:00,
2013-01-26 18:59:00,48.6,47.0,30.18,East,79,2.0,7.0,94,0.00,,SKC,0.02,VWS V14.01,2013-01-27 00:59:00,
2013-01-26 19:00:00,48.7,47.0,30.19,ESE,109,1.0,7.0,94,0.00,,SKC,0.02,VWS V14.01,2013-01-27 01:00:00,
2013-01-26 19:05:00,48.6,47.0,30.19,ENE,78,1.0,5.0,94,0.00,,SKC,0.02,VWS V14.01,2013-01-27 01:05:00,
2013-01-26 19:11:00,48.7,47.3,30.19,East,82,2.0,6.0,95,0.00,,SKC,0.02,VWS V14.01,2013-01-27 01:11:00,
2013-01-26 19:17:00,48.6,47.2,30.19,ENE,76,3.0,7.0,95,0.00,,SKC,0.02,VWS V14.01,2013-01-27 01:17:00,
2013-01-26 19:23:00,48.6,47.0,30.19,East,101,8.0,8.0,94,0.00,,SKC,0.02,VWS V14.01,2013-01-27 01:23:00,
2013-01-26 19:29:00,48.6,47.2,30.19,East,83,6.0,9.0,95,0.00,,SKC,0.02,VWS V14.01,2013-01-27 01:29:00,
2013-01-26 19:30:00,48.6,47.2,30.19,ENE,78,3.0,9.0,95,0.00,,SKC,0.02,VWS V14.01,2013-01-27 01:30:00,
2013-01-26 19:35:00,48.6,47.2,30.19,ENE,76,1.0,6.0,95,0.00,,SKC,0.02,VWS V14.01,2013-01-27 01:35:00,
2013-01-26 19:41:00,48.6,47.2,30.19,East,90,2.0,8.0,95,0.00,,SKC,0.02,VWS V14.01,2013-01-27 01:41:00,
2013-01-26 19:47:00,48.5,47.1,30.19,East,98,5.0,8.0,95,0.00,,SKC,0.02,VWS V14.01,2013-01-27 01:47:00,
2013-01-26 19:53:00,48.5,47.1,30.19,ENE,71,2.0,8.0,95,0.00,,SKC,0.02,VWS V14.01,2013-01-27 01:53:00,
2013-01-26 19:59:00,48.5,47.1,30.19,East,94,1.0,8.0,95,0.00,,SKC,0.02,VWS V14.01,2013-01-27 01:59:00,
2013-01-26 20:00:00,48.5,47.1,30.19,ENE,78,3.0,8.0,95,0.00,,SKC,0.02,VWS V14.01,2013-01-27 02:00:00,
2013-01-26 20:05:00,48.5,47.1,30.18,NE,46,2.0,6.0,95,0.00,,SKC,0.02,VWS V14.01,2013-01-27 02:05:00,
2013-01-26 20:11:00,48.4,47.0,30.18,ENE,63,4.0,7.0,95,0.00,,SKC,0.02,VWS V14.01,2013-01-27 02:11:00,
2013-01-26 20:17:00,48.3,46.9,30.18,East,99,3.0,7.0,95,0.00,,SKC,0.02,VWS V14.01,2013-01-27 02:17:00,
2013-01-26 20:23:00,48.3,46.9,30.19,ESE,119,1.0,7.0,95,0.00,,SKC,0.02,VWS V14.01,2013-01-27 02:23:00,
2013-01-26 20:29:00,48.4,47.0,30.19,East,90,1.0,7.0,95,0.00,,SKC,0.02,VWS V14.01,2013-01-27 02:29:00,
2013-01-26 20:30:00,48.4,47.0,30.18,East,81,3.0,7.0,95,0.00,,SKC,0.02,VWS V14.01,2013-01-27 02:30:00,
2013-01-26 20:35:00,48.4,47.0,30.18,East,80,3.0,7.0,95,0.00,,SKC,0.02,VWS V14.01,2013-01-27 02:35:00,
2013-01-26 20:41:00,48.4,47.0,30.18,East,99,3.0,7.0,95,0.00,,SKC,0.02,VWS V14.01,2013-01-27 02:41:00,
2013-01-26 20:47:00,48.4,47.0,30.17,East,96,1.0,7.0,95,0.00,,SKC,0.02,VWS V14.01,2013-01-27 02:47:00,
2013-01-26 20:53:00,48.4,47.0,30.17,East,89,0.0,7.0,95,0.00,,SKC,0.02,VWS V14.01,2013-01-27 02:53:00,
2013-01-26 21:00:00,48.5,47.1,30.18,ENE,65,2.0,7.0,95,0.00,,SKC,0.02,VWS V14.01,2013-01-27 03:00:00,
2013-01-26 21:06:00,48.5,47.1,30.18,East,92,5.0,5.0,95,0.00,,SKC,0.02,VWS V14.01,2013-01-27 03:06:00,
2013-01-26 21:12:00,48.4,47.0,30.18,East,84,2.0,7.0,95,0.00,,SKC,0.02,VWS V14.01,2013-01-27 03:12:00,
2013-01-26 21:18:00,48.4,47.0,30.17,East,94,3.0,8.0,95,0.00,,SKC,0.02,VWS V14.01,2013-01-27 03:18:00,
2013-01-26 21:24:00,48.5,47.1,30.18,SE,124,5.0,8.0,95,0.00,,SKC,0.02,VWS V14.01,2013-01-27 03:24:00,
2013-01-26 21:30:00,48.4,47.0,30.17,East,82,0.0,8.0,95,0.00,,SKC,0.02,VWS V14.01,2013-01-27 03:30:00,
2013-01-26 21:36:00,48.4,47.0,30.17,East,95,3.0,6.0,95,0.00,,SKC,0.02,VWS V14.01,2013-01-27 03:36:00,
2013-01-26 21:42:00,48.3,46.9,30.17,ESE,109,5.0,8.0,95,0.00,,SKC,0.02,VWS V14.01,2013-01-27 03:42:00,
2013-01-26 21:48:00,48.3,46.9,30.17,ENE,78,2.0,8.0,95,0.00,,SKC,0.02,VWS V14.01,2013-01-27 03:48:00,
2013-01-26 21:54:00,48.3,46.9,30.17,NE,53,4.0,9.0,95,0.00,,SKC,0.02,VWS V14.01,2013-01-27 03:54:00,
2013-01-26 22:00:00,48.3,46.9,30.17,East,92,3.0,9.0,95,0.00,,SKC,0.02,VWS V14.01,2013-01-27 04:00:00,
2013-01-26 22:06:00,48.2,46.8,30.17,East,101,7.0,7.0,95,0.00,,SKC,0.02,VWS V14.01,2013-01-27 04:06:00,
2013-01-26 22:12:00,48.2,48.2,30.17,East,94,2.0,8.0,100,0.00,,SKC,0.02,VWS V14.01,2013-01-27 04:12:00,
2013-01-26 22:18:00,48.2,46.8,30.17,East,88,3.0,9.0,95,0.00,,SKC,0.02,VWS V14.01,2013-01-27 04:18:00,
2013-01-26 22:24:00,48.2,46.8,30.17,East,95,5.0,9.0,95,0.00,,SKC,0.02,VWS V14.01,2013-01-27 04:24:00,
2013-01-26 22:30:00,48.1,46.7,30.17,ESE,113,3.0,9.0,95,0.00,,SKC,0.02,VWS V14.01,2013-01-27 04:30:00,
2013-01-26 22:36:00,48.1,46.7,30.17,ESE,102,2.0,9.0,95,0.00,,SKC,0.02,VWS V14.01,2013-01-27 04:36:00,
2013-01-26 22:42:00,48.1,46.7,30.17,East,85,5.0,9.0,95,0.00,,SKC,0.02,VWS V14.01,2013-01-27 04:42:00,
2013-01-26 22:48:00,48.1,46.7,30.17,ESE,111,5.0,9.0,95,0.00,,SKC,0.02,VWS V14.01,2013-01-27 04:48:00,
2013-01-26 22:54:00,48.1,46.7,30.17,ESE,116,4.0,9.0,95,0.00,,SKC,0.02,VWS V14.01,2013-01-27 04:54:00,
2013-01-26 23:00:00,48.1,47.0,30.16,ESE,123,5.0,9.0,96,0.00,,SKC,0.02,VWS V14.01,2013-01-27 05:00:00,
2013-01-26 23:03:00,48.1,47.0,30.16,ESE,107,7.0,9.0,96,0.00,,SKC,0.02,VWS V14.01,2013-01-27 05:03:00,
2013-01-26 23:06:00,48.1,47.0,30.16,ESE,105,4.0,9.0,96,0.00,,SKC,0.02,VWS V14.01,2013-01-27 05:06:00,
2013-01-26 23:12:00,48.0,46.9,30.16,East,88,6.0,9.0,96,0.00,,SKC,0.02,VWS V14.01,2013-01-27 05:12:00,
2013-01-26 23:18:00,48.0,46.9,30.16,East,82,3.0,9.0,96,0.00,,SKC,0.02,VWS V14.01,2013-01-27 05:18:00,
2013-01-26 23:24:00,48.0,46.9,30.16,East,96,3.0,9.0,96,0.00,,SKC,0.02,VWS V14.01,2013-01-27 05:24:00,
2013-01-26 23:30:00,48.0,46.9,30.15,SE,126,6.0,9.0,96,0.00,,SKC,0.02,VWS V14.01,2013-01-27 05:30:00,
2013-01-26 23:36:00,48.0,46.9,30.16,East,100,5.0,8.0,96,0.00,,SKC,0.02,VWS V14.01,2013-01-27 05:36:00,
2013-01-26 23:42:00,48.0,46.9,30.16,East,86,3.0,8.0,96,0.00,,SKC,0.02,VWS V14.01,2013-01-27 05:42:00,
2013-01-26 23:48:00,47.9,46.8,30.16,East,87,5.0,9.0,96,0.00,,SKC,0.02,VWS V14.01,2013-01-27 05:48:00,
2013-01-26 23:54:00,47.9,46.8,30.15,East,92,1.0,9.0,96,0.00,,SKC,0.02,VWS V14.01,2013-01-27 05:54:00,